This is the latest recevied weather packets stored in our database for station/object K7NDG. If no packets are shown the sender has not sent any weather packets the latest 10 day(s).
| Time | Temp. | Humidity | Pressure | Rain* | Wind** | Luminosity | Snow |
|---|---|---|---|---|---|---|---|
| 1777731834 | 10° C | 89% | 1017.8 hPa | 0 mm | - | 27 W/m² | - |
| 1777731531 | 10.56° C | 88% | 1017.6 hPa | 0 mm | - | 23 W/m² | - |
| 1777731229 | 10.56° C | 88% | 1017.6 hPa | 0 mm | - | 22 W/m² | - |
| 1777730927 | 10.56° C | 89% | 1017.8 hPa | 0 mm | - | 21 W/m² | - |
| 1777730624 | 10.56° C | 89% | 1017.6 hPa | 0 mm | - | 16 W/m² | - |
| 1777730320 | 10.56° C | 89% | 1017.5 hPa | 0 mm | - | 17 W/m² | - |
| 1777730017 | 10.56° C | 89% | 1017.3 hPa | 0 mm | - | 15 W/m² | - |
| 1777729713 | 10° C | 89% | 1017.4 hPa | 0 mm | - | 12 W/m² | - |
| 1777729411 | 10° C | 89% | 1017.4 hPa | 0 mm | - | 10 W/m² | - |
| 1777729107 | 10° C | 89% | 1017.3 hPa | 0 mm | - | 7 W/m² | - |
| 1777728803 | 10° C | 89% | 1017.4 hPa | 0 mm | - | 5 W/m² | - |
| 1777728501 | 10° C | 89% | 1017.3 hPa | 0 mm | - | 4 W/m² | - |
| 1777728198 | 10° C | 89% | 1017.3 hPa | 0 mm | - | 2 W/m² | - |
| 1777727895 | 10° C | 88% | 1017.4 hPa | 0 mm | - | 0 W/m² | - |
| 1777727592 | 10° C | 88% | 1017.3 hPa | 0 mm | - | 0 W/m² | - |
| 1777727289 | 10° C | 88% | 1016.9 hPa | 0 mm | - | 0 W/m² | - |
| 1777726986 | 10° C | 88% | 1016.8 hPa | 0 mm | - | 0 W/m² | - |
| 1777726683 | 10° C | 88% | 1016.9 hPa | 0 mm | - | 0 W/m² | - |
| 1777726380 | 10° C | 88% | 1017.1 hPa | 0 mm | - | 0 W/m² | - |
| 1777726076 | 10° C | 88% | 1017.3 hPa | 0 mm | - | 0 W/m² | - |
| 1777725773 | 10° C | 88% | 1017.2 hPa | 0 mm | - | 0 W/m² | - |
| 1777725472 | 10.56° C | 88% | 1017.3 hPa | 0 mm | - | 0 W/m² | - |
| 1777725169 | 10.56° C | 88% | 1017.3 hPa | 0 mm | - | 0 W/m² | - |
| 1777724865 | 10.56° C | 88% | 1017.4 hPa | 0 mm | - | 0 W/m² | - |
| 1777724561 | 10.56° C | 87% | 1017.4 hPa | 0 mm | - | 0 W/m² | - |
* Rain latest hour (hover to see other rain measurements)
** Current wind speed in m/s (hover to see current wind gust speed)